KUIPER-00054

导读

KUIPER-00054是美国亚马逊柯伊伯(Project Kuiper)低轨卫星互联网星座的成员卫星,于2025年6月23日由联合发射联盟Atlas V火箭,从佛罗里达州卡纳维拉尔角太空军基地发射入轨。作为项目第二批组网卫星之一,它将助力项目实现全球宽带互联网覆盖,尤其服务未覆盖和欠覆盖区域,是亚马逊抗衡星链、构建三千余颗卫星星座的重要一步。

基本信息
目录编号:
64514
目录名称:
KUIPER-00054
国际标识:
2025-134Q
轨道中心:
EARTH
卫星名称:
KUIPER-00054
卫星全名:
KUIPER-00054
卫星状态:
在轨 (已飞行355 天)
发射日期:
2025-06-23 UTC
国别 :
美国 (US)
星等 :
--
轨道信息
数据来源 国际轨道数据 AOE轨道数据
星历时间 2026-06-12T12:31:03+0800
21小时前
查看轨道信息
2026-06-13T00:00:00+0800
10小时前
查看轨道信息
半长轴 7007.657km 7007.642km
偏心率 0.0000666 0.0000844
轨道倾角 51.897° 51.896°
近地点辐角 30.855° 27.612°
升交点赤经 160.180° 158.065°
平近点角 329.245° 3.057°
近地点 629.053km 628.913km
远地点 629.987km 630.097km
周期 97.301分钟 97.301分钟
每日圈数 14.799381 14.799429
详细信息
使用方式:
暂无
2D轨道图
3D轨道图
轨道高度分析图
轨道倾角分析图
轨道综合分析图
查看轨道综合分析图